FYT24VR EDDN-LIRF

Flight info

Callsign FYT24VR
Flight time 1h 24m
Altitude 33000
Route BOLSI Y167 AKANU L603 OLETU Z106 MANAL DCT BERAS/N0442F330 M736 LIZUM N503 LIKDA DCT VESAL DCT GAVRA Y345 RITEB
Aircraft A321/M-SDE1FGHIJ1RWXY/S

Departure

Time 2026-02-18 09:13
Airport Nuremberg Airport (EDDN)

Arrival

Time 2026-02-18 10:38
Airport Rome–Fiumicino Leonardo da Vinci International Airport (LIRF)
Time Latitude Longitude Altitude Speed Heading
2026-02-18 09:04 49.49548 11.07518 1025 ft 0 kts 188°
2026-02-18 09:05 49.49550 11.07519 1025 ft 1 kts 188°
2026-02-18 09:06 49.49565 11.07522 1025 ft 2 kts 188°
2026-02-18 09:06 49.49580 11.07526 1025 ft 2 kts 188°
2026-02-18 09:06 49.49594 11.07529 1025 ft 2 kts 188°
2026-02-18 09:06 49.49603 11.07531 1025 ft 1 kts 189°
2026-02-18 09:07 49.49609 11.07529 1025 ft 0 kts 124°
2026-02-18 09:07 49.49611 11.07521 1025 ft 1 kts 90°
2026-02-18 09:07 49.49612 11.07514 1025 ft 0 kts 97°
2026-02-18 09:09 49.49603 11.07597 1026 ft 8 kts 99°
2026-02-18 09:09 49.49605 11.07709 1026 ft 12 kts 63°
2026-02-18 09:10 49.49643 11.07848 1027 ft 16 kts 94°
2026-02-18 09:10 49.49632 11.08019 1029 ft 15 kts 97°
2026-02-18 09:10 49.49615 11.08179 1030 ft 14 kts 99°
2026-02-18 09:10 49.49606 11.08332 1032 ft 13 kts 83°
2026-02-18 09:11 49.49609 11.08485 1033 ft 16 kts 98°
2026-02-18 09:11 49.49590 11.08679 1036 ft 19 kts 98°
2026-02-18 09:11 49.49571 11.08881 1039 ft 18 kts 97°
2026-02-18 09:11 49.49553 11.09062 1042 ft 16 kts 99°
2026-02-18 09:12 49.49536 11.09225 1045 ft 14 kts 99°
2026-02-18 09:12 49.49541 11.09367 1047 ft 12 kts 65°
2026-02-18 09:12 49.49584 11.09477 1049 ft 11 kts 52°
2026-02-18 09:12 49.49665 11.09555 1050 ft 19 kts 346°
2026-02-18 09:13 49.49733 11.09173 1044 ft 70 kts 280°
2026-02-18 09:13 49.50005 11.06382 1073 ft 180 kts 279°
2026-02-18 09:13 49.50199 11.04482 1726 ft 180 kts 280°
2026-02-18 09:14 49.50393 11.02672 2580 ft 172 kts 278°
2026-02-18 09:14 49.50568 11.00789 2962 ft 185 kts 278°
2026-02-18 09:14 49.50694 10.98750 3277 ft 201 kts 267°
2026-02-18 09:14 49.50072 10.96734 3514 ft 225 kts 224°
2026-02-18 09:15 49.48596 10.95714 3854 ft 247 kts 191°
2026-02-18 09:15 49.46881 10.95505 4446 ft 254 kts 185°
2026-02-18 09:15 49.45100 10.95374 5123 ft 256 kts 186°
2026-02-18 09:15 49.43315 10.95177 5799 ft 258 kts 188°
2026-02-18 09:16 49.41520 10.94909 6306 ft 267 kts 189°
2026-02-18 09:16 49.40286 10.94696 6629 ft 274 kts 190°
2026-02-18 09:16 49.38985 10.94454 7062 ft 276 kts 191°
2026-02-18 09:16 49.38264 10.94315 7317 ft 277 kts 191°
2026-02-18 09:17 49.36342 10.93932 8004 ft 280 kts 191°
2026-02-18 09:17 49.32456 10.93132 9283 ft 287 kts 192°
2026-02-18 09:17 49.30464 10.92712 9907 ft 290 kts 192°
2026-02-18 09:18 49.28460 10.92289 10399 ft 298 kts 192°
2026-02-18 09:18 49.26363 10.91840 10685 ft 313 kts 192°
2026-02-18 09:18 49.24155 10.91371 10976 ft 327 kts 192°
2026-02-18 09:18 49.21836 10.91060 11232 ft 345 kts 180°
2026-02-18 09:19 49.19510 10.92092 11645 ft 360 kts 154°
2026-02-18 09:19 49.17394 10.94171 12289 ft 363 kts 146°
2026-02-18 09:19 49.15328 10.96427 12809 ft 367 kts 146°
2026-02-18 09:19 49.13243 10.98646 13327 ft 371 kts 147°
2026-02-18 09:20 49.11064 11.00864 13836 ft 375 kts 149°
2026-02-18 09:20 49.08884 11.03003 14350 ft 378 kts 149°
2026-02-18 09:20 49.06647 11.05153 14843 ft 382 kts 150°
2026-02-18 09:20 49.04378 11.07302 15268 ft 387 kts 150°
2026-02-18 09:21 49.02060 11.09481 15723 ft 391 kts 150°
2026-02-18 09:21 48.97400 11.13837 16640 ft 399 kts 151°
2026-02-18 09:21 48.95000 11.16073 17050 ft 404 kts 151°
2026-02-18 09:22 48.92603 11.18305 17459 ft 407 kts 151°
2026-02-18 09:22 48.90201 11.20539 17900 ft 410 kts 152°
2026-02-18 09:22 48.85294 11.25090 18664 ft 418 kts 152°
2026-02-18 09:23 48.82800 11.27396 19046 ft 422 kts 152°
2026-02-18 09:23 48.80294 11.29714 19456 ft 425 kts 152°
2026-02-18 09:23 48.77761 11.32056 19857 ft 428 kts 152°
2026-02-18 09:23 48.75212 11.34409 20282 ft 430 kts 152°
2026-02-18 09:24 48.72677 11.36747 20691 ft 433 kts 152°
2026-02-18 09:24 48.70075 11.39142 21055 ft 436 kts 152°
2026-02-18 09:24 48.67493 11.41516 21440 ft 439 kts 152°
2026-02-18 09:24 48.64859 11.43934 21838 ft 442 kts 152°
2026-02-18 09:25 48.62246 11.46331 22214 ft 444 kts 152°
2026-02-18 09:25 48.56931 11.51202 22930 ft 450 kts 152°
2026-02-18 09:25 48.54228 11.53675 23270 ft 453 kts 152°
2026-02-18 09:26 48.51535 11.56131 23627 ft 456 kts 152°
2026-02-18 09:26 48.48822 11.58539 23970 ft 456 kts 155°
2026-02-18 09:26 48.45971 11.60530 24304 ft 454 kts 163°
2026-02-18 09:26 48.42960 11.61969 24621 ft 452 kts 171°
2026-02-18 09:27 48.39905 11.63041 24962 ft 453 kts 173°
2026-02-18 09:27 48.36814 11.64042 25307 ft 455 kts 174°
2026-02-18 09:27 48.33743 11.65036 25630 ft 457 kts 174°
2026-02-18 09:27 48.30598 11.66080 25963 ft 460 kts 174°
2026-02-18 09:28 48.27449 11.67145 26255 ft 462 kts 174°
2026-02-18 09:28 48.24313 11.68219 26538 ft 464 kts 174°
2026-02-18 09:28 48.21159 11.69308 26859 ft 466 kts 174°
2026-02-18 09:28 48.17986 11.70400 27296 ft 464 kts 174°
2026-02-18 09:29 48.14882 11.71477 28031 ft 455 kts 174°
2026-02-18 09:29 48.08875 11.73558 29578 ft 433 kts 175°
2026-02-18 09:29 48.05953 11.74556 29938 ft 433 kts 176°
2026-02-18 09:30 48.02987 11.75552 30068 ft 439 kts 176°
2026-02-18 09:30 47.99981 11.76566 30206 ft 444 kts 175°
2026-02-18 09:30 47.96954 11.77593 30337 ft 449 kts 175°
2026-02-18 09:30 47.93856 11.78577 30470 ft 451 kts 178°
2026-02-18 09:31 47.90786 11.79271 30607 ft 452 kts 182°
2026-02-18 09:31 47.87631 11.79666 30717 ft 452 kts 186°
2026-02-18 09:31 47.84502 11.79737 30835 ft 451 kts 191°
2026-02-18 09:31 47.81381 11.79566 30954 ft 453 kts 192°
2026-02-18 09:32 47.78210 11.79363 31058 ft 457 kts 192°
2026-02-18 09:32 47.75044 11.79163 31213 ft 460 kts 192°
2026-02-18 09:32 47.71806 11.78969 31396 ft 462 kts 192°
2026-02-18 09:32 47.68596 11.78785 31611 ft 463 kts 191°
2026-02-18 09:33 47.65388 11.78603 31814 ft 464 kts 192°
2026-02-18 09:33 47.58896 11.78239 32208 ft 465 kts 192°
2026-02-18 09:33 47.55701 11.78059 32383 ft 466 kts 192°
2026-02-18 09:34 47.52424 11.77877 32597 ft 467 kts 191°
2026-02-18 09:34 47.49270 11.77699 32797 ft 467 kts 191°
2026-02-18 09:34 47.46019 11.77518 32902 ft 468 kts 191°
2026-02-18 09:35 47.39494 11.77155 32890 ft 469 kts 192°
2026-02-18 09:35 47.32938 11.76790 32831 ft 469 kts 191°
2026-02-18 09:36 47.26437 11.76427 32825 ft 471 kts 191°
2026-02-18 09:36 47.19901 11.76068 32796 ft 470 kts 191°
2026-02-18 09:37 47.13316 11.75702 32834 ft 472 kts 191°
2026-02-18 09:37 47.03477 11.75173 32791 ft 473 kts 191°
2026-02-18 09:38 46.96883 11.74817 32801 ft 473 kts 191°
2026-02-18 09:38 46.90336 11.74455 32833 ft 472 kts 191°
2026-02-18 09:39 46.83773 11.74090 32890 ft 472 kts 191°
2026-02-18 09:39 46.77146 11.73725 32960 ft 473 kts 191°
2026-02-18 09:40 46.70592 11.73364 32981 ft 471 kts 191°
2026-02-18 09:40 46.64041 11.73005 32947 ft 472 kts 191°
2026-02-18 09:41 46.54214 11.72466 32950 ft 472 kts 191°
2026-02-18 09:42 46.47673 11.72109 32924 ft 470 kts 191°
2026-02-18 09:42 46.41178 11.71758 32990 ft 472 kts 191°
2026-02-18 09:43 46.34612 11.71814 32927 ft 474 kts 187°
2026-02-18 09:43 46.28017 11.72105 32883 ft 474 kts 187°
2026-02-18 09:44 46.21435 11.72392 32848 ft 475 kts 187°
2026-02-18 09:44 46.14846 11.72679 32869 ft 472 kts 187°
2026-02-18 09:45 46.08285 11.72964 32900 ft 471 kts 187°
2026-02-18 09:45 45.98389 11.73387 32916 ft 472 kts 187°
2026-02-18 09:46 45.91833 11.73665 32939 ft 472 kts 187°
2026-02-18 09:46 45.85293 11.73943 32963 ft 471 kts 187°
2026-02-18 09:47 45.78693 11.74223 32985 ft 472 kts 187°
2026-02-18 09:47 45.73109 11.74460 32991 ft 472 kts 187°
2026-02-18 09:48 45.66526 11.74739 32995 ft 472 kts 187°
2026-02-18 09:48 45.59978 11.75017 32998 ft 471 kts 187°
2026-02-18 09:49 45.50184 11.75428 32996 ft 471 kts 187°
2026-02-18 09:50 45.43643 11.75702 33007 ft 470 kts 187°
2026-02-18 09:50 45.37081 11.75977 33002 ft 471 kts 187°
2026-02-18 09:51 45.30555 11.76250 33014 ft 471 kts 187°
2026-02-18 09:51 45.24003 11.76524 33003 ft 470 kts 187°
2026-02-18 09:52 45.17501 11.76794 33004 ft 470 kts 187°
2026-02-18 09:52 45.10971 11.77064 32992 ft 469 kts 187°
2026-02-18 09:53 45.04436 11.77334 32995 ft 470 kts 187°
2026-02-18 09:53 44.94627 11.77740 32983 ft 471 kts 187°
2026-02-18 09:54 44.88207 11.78005 32964 ft 469 kts 187°
2026-02-18 09:54 44.81647 11.78274 32980 ft 469 kts 187°
2026-02-18 09:55 44.75145 11.78540 32976 ft 470 kts 187°
2026-02-18 09:55 44.68606 11.78808 32982 ft 470 kts 187°
2026-02-18 09:56 44.62064 11.79075 32991 ft 471 kts 187°
2026-02-18 09:56 44.55531 11.79338 32975 ft 472 kts 187°
2026-02-18 09:57 44.45702 11.79740 32985 ft 470 kts 187°
2026-02-18 09:58 44.39140 11.80004 32952 ft 471 kts 187°
2026-02-18 09:58 44.32625 11.80267 32977 ft 471 kts 187°
2026-02-18 09:59 44.26077 11.80531 32984 ft 472 kts 187°
2026-02-18 09:59 44.21569 11.80712 32966 ft 471 kts 187°
2026-02-18 10:00 44.15026 11.80975 32617 ft 469 kts 187°
2026-02-18 10:00 44.11776 11.81107 32373 ft 467 kts 187°
2026-02-18 10:00 44.08523 11.81238 32128 ft 464 kts 187°
2026-02-18 10:00 44.05312 11.81367 31851 ft 461 kts 187°
2026-02-18 10:01 44.02136 11.81494 31584 ft 460 kts 187°
2026-02-18 10:01 43.95734 11.81744 31087 ft 461 kts 186°
2026-02-18 10:01 43.92530 11.81871 30835 ft 461 kts 186°
2026-02-18 10:02 43.89334 11.81999 30546 ft 461 kts 186°
2026-02-18 10:02 43.86124 11.82127 30241 ft 461 kts 186°
2026-02-18 10:02 43.82933 11.82253 29974 ft 461 kts 186°
2026-02-18 10:02 43.79708 11.82487 29714 ft 465 kts 182°
2026-02-18 10:03 43.76492 11.82994 29411 ft 470 kts 179°
2026-02-18 10:03 43.73284 11.83797 29147 ft 474 kts 174°
2026-02-18 10:03 43.70071 11.84812 28862 ft 474 kts 173°
2026-02-18 10:03 43.66880 11.85845 28589 ft 474 kts 173°
2026-02-18 10:04 43.63674 11.86883 28317 ft 473 kts 173°
2026-02-18 10:04 43.60474 11.87915 28060 ft 471 kts 173°
2026-02-18 10:04 43.57319 11.88927 27801 ft 468 kts 173°
2026-02-18 10:04 43.54114 11.89951 27508 ft 466 kts 173°
2026-02-18 10:05 43.50977 11.90950 27235 ft 464 kts 173°
2026-02-18 10:05 43.44712 11.92934 26681 ft 462 kts 173°
2026-02-18 10:05 43.41591 11.93924 26422 ft 460 kts 173°
2026-02-18 10:06 43.38492 11.94903 26123 ft 458 kts 173°
2026-02-18 10:06 43.35386 11.95884 25819 ft 456 kts 173°
2026-02-18 10:06 43.32333 11.96849 25487 ft 453 kts 173°
2026-02-18 10:06 43.29262 11.97817 25062 ft 450 kts 172°
2026-02-18 10:07 43.26226 11.98773 24594 ft 447 kts 172°
2026-02-18 10:07 43.23219 11.99719 24116 ft 443 kts 172°
2026-02-18 10:07 43.20252 12.00652 23633 ft 440 kts 172°
2026-02-18 10:07 43.17273 12.01587 23136 ft 436 kts 172°
2026-02-18 10:08 43.14336 12.02510 22661 ft 432 kts 172°
2026-02-18 10:08 43.11440 12.03419 22177 ft 429 kts 172°
2026-02-18 10:08 43.08550 12.04321 21696 ft 426 kts 172°
2026-02-18 10:08 43.05648 12.05230 21213 ft 422 kts 172°
2026-02-18 10:09 43.02829 12.06114 20738 ft 419 kts 172°
2026-02-18 10:09 42.97184 12.07875 19781 ft 413 kts 171°
2026-02-18 10:09 42.94416 12.08738 19303 ft 411 kts 171°
2026-02-18 10:10 42.91633 12.09604 18816 ft 408 kts 171°
2026-02-18 10:10 42.88961 12.10434 18361 ft 406 kts 171°
2026-02-18 10:10 42.86187 12.11296 17890 ft 403 kts 171°
2026-02-18 10:10 42.83485 12.12134 17419 ft 401 kts 171°
2026-02-18 10:11 42.80783 12.12972 16958 ft 398 kts 171°
2026-02-18 10:11 42.78102 12.13805 16653 ft 389 kts 171°
2026-02-18 10:11 42.75503 12.14613 16508 ft 377 kts 171°
2026-02-18 10:11 42.73001 12.15389 16408 ft 364 kts 171°
2026-02-18 10:12 42.70578 12.16243 16189 ft 357 kts 165°
2026-02-18 10:12 42.68323 12.17539 15880 ft 353 kts 155°
2026-02-18 10:12 42.66198 12.19167 15623 ft 349 kts 152°
2026-02-18 10:12 42.64145 12.20842 15338 ft 343 kts 151°
2026-02-18 10:13 42.62114 12.22505 14925 ft 343 kts 151°
2026-02-18 10:13 42.58067 12.25780 14188 ft 336 kts 152°
2026-02-18 10:13 42.56064 12.27385 13820 ft 334 kts 152°
2026-02-18 10:14 42.54073 12.28976 13435 ft 332 kts 152°
2026-02-18 10:14 42.52065 12.30576 13007 ft 332 kts 152°
2026-02-18 10:14 42.50102 12.32141 12595 ft 330 kts 152°
2026-02-18 10:14 42.48128 12.33712 12230 ft 328 kts 152°
2026-02-18 10:15 42.46185 12.35258 11862 ft 325 kts 152°
2026-02-18 10:15 42.44232 12.36813 11456 ft 323 kts 152°
2026-02-18 10:15 42.42318 12.38336 11059 ft 319 kts 152°
2026-02-18 10:15 42.40424 12.39841 10761 ft 316 kts 152°
2026-02-18 10:16 42.38530 12.41345 10460 ft 308 kts 152°
2026-02-18 10:16 42.36709 12.42746 10364 ft 294 kts 156°
2026-02-18 10:16 42.34881 12.43808 10173 ft 285 kts 165°
2026-02-18 10:16 42.33023 12.44624 9813 ft 282 kts 167°
2026-02-18 10:17 42.31153 12.45388 9493 ft 279 kts 167°
2026-02-18 10:17 42.27459 12.46907 8847 ft 274 kts 166°
2026-02-18 10:17 42.25646 12.47666 8548 ft 272 kts 165°
2026-02-18 10:18 42.23836 12.48257 8268 ft 266 kts 180°
2026-02-18 10:18 42.22131 12.47662 7969 ft 249 kts 216°
2026-02-18 10:18 42.21049 12.45924 7614 ft 244 kts 248°
2026-02-18 10:18 42.20590 12.43748 7313 ft 241 kts 255°
2026-02-18 10:19 42.20152 12.41549 6994 ft 241 kts 253°
2026-02-18 10:19 42.19687 12.39401 6668 ft 241 kts 251°
2026-02-18 10:19 42.19242 12.37241 6313 ft 241 kts 259°
2026-02-18 10:19 42.19467 12.35032 5973 ft 241 kts 296°
2026-02-18 10:20 42.20552 12.33398 5967 ft 236 kts 327°
2026-02-18 10:20 42.22089 12.32578 5969 ft 237 kts 342°
2026-02-18 10:20 42.23645 12.31975 6055 ft 223 kts 342°
2026-02-18 10:20 42.25066 12.31419 5980 ft 206 kts 342°
2026-02-18 10:21 42.26379 12.30890 5928 ft 187 kts 341°
2026-02-18 10:21 42.28748 12.29907 5943 ft 176 kts 341°
2026-02-18 10:21 42.29921 12.29412 5960 ft 177 kts 340°
2026-02-18 10:22 42.31099 12.28915 5977 ft 176 kts 341°
2026-02-18 10:22 42.32261 12.28425 5977 ft 175 kts 341°
2026-02-18 10:22 42.33433 12.27932 5966 ft 175 kts 341°
2026-02-18 10:22 42.34593 12.27442 5964 ft 174 kts 341°
2026-02-18 10:23 42.35751 12.26953 5972 ft 174 kts 341°
2026-02-18 10:23 42.36914 12.26464 5973 ft 175 kts 340°
2026-02-18 10:23 42.38064 12.25978 5970 ft 175 kts 340°
2026-02-18 10:23 42.39232 12.25485 5971 ft 175 kts 340°
2026-02-18 10:24 42.40344 12.24877 5961 ft 173 kts 323°
2026-02-18 10:24 42.41182 12.23759 5969 ft 169 kts 298°
2026-02-18 10:24 42.41615 12.22302 5971 ft 164 kts 276°
2026-02-18 10:24 42.41607 12.20785 5970 ft 161 kts 255°
2026-02-18 10:25 42.41296 12.19339 5975 ft 161 kts 249°
2026-02-18 10:25 42.40590 12.16477 5970 ft 161 kts 249°
2026-02-18 10:25 42.40243 12.15035 5971 ft 161 kts 249°
2026-02-18 10:26 42.39901 12.13592 5970 ft 162 kts 250°
2026-02-18 10:26 42.39540 12.12144 5969 ft 162 kts 242°
2026-02-18 10:26 42.38867 12.10938 5969 ft 160 kts 218°
2026-02-18 10:26 42.37902 12.10214 5969 ft 159 kts 196°
2026-02-18 10:27 42.36747 12.10060 6008 ft 180 kts 174°
2026-02-18 10:27 42.35454 12.10501 6038 ft 207 kts 164°
2026-02-18 10:27 42.34023 12.11115 6017 ft 223 kts 163°
2026-02-18 10:27 42.32531 12.11768 5991 ft 224 kts 163°
2026-02-18 10:28 42.31036 12.12416 5979 ft 224 kts 163°
2026-02-18 10:28 42.29581 12.13040 5961 ft 220 kts 163°
2026-02-18 10:28 42.28101 12.13671 5926 ft 220 kts 163°
2026-02-18 10:28 42.26641 12.14293 5977 ft 220 kts 163°
2026-02-18 10:29 42.25194 12.14905 5977 ft 220 kts 163°
2026-02-18 10:29 42.22278 12.16137 5786 ft 221 kts 163°
2026-02-18 10:29 42.20830 12.16750 5389 ft 217 kts 163°
2026-02-18 10:30 42.19399 12.17355 5004 ft 213 kts 163°
2026-02-18 10:30 42.18001 12.17946 4610 ft 210 kts 163°
2026-02-18 10:30 42.16624 12.18528 4233 ft 206 kts 163°
2026-02-18 10:30 42.15242 12.18987 3962 ft 198 kts 174°
2026-02-18 10:31 42.13869 12.18889 3958 ft 199 kts 188°
2026-02-18 10:31 42.12525 12.18513 3924 ft 199 kts 191°
2026-02-18 10:31 42.11172 12.18096 3568 ft 198 kts 191°
2026-02-18 10:31 42.09846 12.17685 3187 ft 196 kts 191°
2026-02-18 10:32 42.08512 12.17313 2958 ft 192 kts 186°
2026-02-18 10:32 42.07184 12.17196 2961 ft 193 kts 178°
2026-02-18 10:32 42.05890 12.17366 2879 ft 180 kts 169°
2026-02-18 10:32 42.04704 12.17742 2737 ft 171 kts 164°
2026-02-18 10:33 42.03570 12.18197 2564 ft 171 kts 162°
2026-02-18 10:33 42.01297 12.19157 2498 ft 171 kts 162°
2026-02-18 10:33 42.00154 12.19639 2488 ft 172 kts 163°
2026-02-18 10:34 41.99025 12.20113 2494 ft 172 kts 163°
2026-02-18 10:34 41.97876 12.20594 2498 ft 171 kts 163°
2026-02-18 10:34 41.96729 12.21074 2483 ft 172 kts 163°
2026-02-18 10:34 41.95593 12.21549 2302 ft 171 kts 162°
2026-02-18 10:35 41.94512 12.22001 2044 ft 154 kts 162°
2026-02-18 10:35 41.93525 12.22414 1829 ft 145 kts 162°
2026-02-18 10:35 41.92569 12.22814 1654 ft 144 kts 162°
2026-02-18 10:35 41.91608 12.23216 1469 ft 144 kts 162°
2026-02-18 10:36 41.90653 12.23616 1284 ft 143 kts 162°
2026-02-18 10:36 41.89703 12.24012 1096 ft 143 kts 162°
2026-02-18 10:36 41.89391 12.24143 1035 ft 142 kts 162°
2026-02-18 10:36 41.89070 12.24276 972 ft 142 kts 162°
2026-02-18 10:37 41.84985 12.25984 130 ft 141 kts 161°
2026-02-18 10:37 41.84053 12.26368 13 ft 128 kts 162°
2026-02-18 10:38 41.83369 12.26662 9 ft 79 kts 160°
2026-02-18 10:38 41.82920 12.26845 8 ft 58 kts 167°
2026-02-18 10:38 41.82694 12.26848 8 ft 28 kts 190°
2026-02-18 10:38 41.82503 12.26808 8 ft 27 kts 190°
2026-02-18 10:39 41.82320 12.26777 8 ft 25 kts 175°
2026-02-18 10:39 41.82155 12.26839 8 ft 24 kts 162°
2026-02-18 10:39 41.81997 12.26907 9 ft 23 kts 159°
2026-02-18 10:39 41.81848 12.26976 9 ft 22 kts 162°
2026-02-18 10:40 41.81701 12.27035 9 ft 21 kts 164°
2026-02-18 10:40 41.81561 12.27092 10 ft 20 kts 160°
2026-02-18 10:40 41.81426 12.27152 10 ft 20 kts 162°
2026-02-18 10:40 41.81294 12.27206 11 ft 19 kts 163°
2026-02-18 10:41 41.81166 12.27259 11 ft 19 kts 161°
2026-02-18 10:41 41.80914 12.27343 11 ft 18 kts 184°
2026-02-18 10:41 41.80788 12.27319 11 ft 18 kts 189°
2026-02-18 10:42 41.80674 12.27260 11 ft 17 kts 232°
2026-02-18 10:42 41.80624 12.27111 12 ft 17 kts 250°
2026-02-18 10:42 41.80582 12.26959 12 ft 17 kts 249°
2026-02-18 10:42 41.80541 12.26810 13 ft 17 kts 249°
2026-02-18 10:43 41.80498 12.26662 13 ft 16 kts 249°
2026-02-18 10:43 41.80458 12.26514 14 ft 16 kts 249°
2026-02-18 10:43 41.80396 12.26391 14 ft 16 kts 207°
2026-02-18 10:43 41.80285 12.26399 14 ft 16 kts 167°
2026-02-18 10:44 41.80173 12.26423 14 ft 16 kts 165°
2026-02-18 10:44 41.80104 12.26518 14 ft 15 kts 93°
2026-02-18 10:44 41.80074 12.26599 14 ft 9 kts 149°
2026-02-18 10:44 41.80011 12.26635 14 ft 10 kts 159°
2026-02-18 10:45 41.79941 12.26669 14 ft 11 kts 160°
2026-02-18 10:45 41.79793 12.26714 14 ft 5 kts 219°
2026-02-18 10:45 41.79778 12.26684 14 ft 0 kts 246°